QPF
0.02 0.01 0.01 0.01 0.01 0.01 0.01 0.02 0.03 0.02 0.01 0.01 0.02 0.03 0.04 0.04 0.04 0.04 0.04 0.03 0.02 0.02 0.01 0.00 0.00 0.00 0.00 0.00 0.00 0.00 0.00 0.00 0.00 0.00 0.00 0.01 0.01 0.02
0.03 0.02 0.01 0.01 0.01 0.01 0.01 0.02 0.03 0.04 0.03 0.02 0.02 0.03 0.04 0.06 0.09 0.08 0.05 0.03 0.03 0.02 0.01 0.01 0.01 0.00 0.01 0.00 0.00 0.00 0.00 0.00 0.00 0.00 0.00 0.00 0.00 0.00
0.05 0.04 0.03 0.02 0.02 0.01 0.02 0.02 0.02 0.03 0.03 0.02 0.02 0.02 0.02 0.03 0.06 0.06 0.05 0.04 0.04 0.03 0.03 0.02 0.02 0.01 0.01 0.01 0.00 0.00 0.00 0.00 0.00 0.00 0.00 0.00 0.00 0.00
0.04 0.04 0.04 0.04 0.03 0.02 0.02 0.01 0.01 0.01 0.02 0.02 0.01 0.01 0.02 0.02 0.03 0.04 0.04 0.04 0.04 0.04 0.04 0.03 0.02 0.01 0.01 0.00 0.00 0.00 0.00 0.00 0.00 0.00 0.00 0.00 0.00 0.00
0.05 0.05 0.05 0.06 0.04 0.04 0.02 0.01 0.01 0.01 0.02 0.02 0.02 0.03 0.03 0.03 0.03 0.03 0.03 0.03 0.04 0.04 0.03 0.03 0.03 0.03 0.02 0.01 0.01 0.00 0.00 0.00 0.01 0.00 0.00 0.00 0.00 0.00
0.09 0.08 0.08 0.08 0.06 0.05 0.03 0.02 0.02 0.02 0.03 0.04 0.04 0.04 0.05 0.04 0.04 0.03 0.02 0.02 0.03 0.03 0.03 0.03 0.03 0.03 0.03 0.02 0.02 0.01 0.01 0.01 0.01 0.01 0.01 0.01 0.01 0.00
0.12 0.11 0.11 0.09 0.09 0.08 0.07 0.05 0.05 0.05 0.05 0.05 0.04 0.04 0.05 0.05 0.04 0.04 0.03 0.03 0.03 0.02 0.03 0.03 0.02 0.02 0.02 0.03 0.03 0.03 0.03 0.03 0.03 0.03 0.02 0.02 0.01 0.01
0.10 0.09 0.08 0.07 0.07 0.09 0.08 0.07 0.07 0.06 0.05 0.05 0.06 0.06 0.07 0.08 0.07 0.06 0.05 0.06 0.06 0.05 0.04 0.05 0.04 0.04 0.03 0.03 0.03 0.04 0.04 0.04 0.03 0.03 0.02 0.01 0.01 0.01
0.10 0.09 0.08 0.08 0.08 0.08 0.08 0.08 0.08 0.08 0.06 0.06 0.06 0.06 0.07 0.07 0.08 0.08 0.07 0.07 0.07 0.07 0.07 0.06 0.05 0.04 0.03 0.03 0.03 0.03 0.03 0.03 0.03 0.03 0.02 0.02 0.02 0.02
0.09 0.09 0.09 0.09 0.09 0.09 0.07 0.07 0.07 0.06 0.06 0.06 0.06 0.06 0.06 0.06 0.06 0.06 0.07 0.06 0.06 0.06 0.06 0.05 0.04 0.04 0.04 0.03 0.03 0.03 0.03 0.03 0.03 0.02 0.03 0.02 0.02 0.02
0.07 0.09 0.12 0.12 0.12 0.11 0.08 0.06 0.06 0.06 0.06 0.07 0.06 0.05 0.04 0.04 0.04 0.04 0.04 0.05 0.05 0.05 0.04 0.04 0.03 0.03 0.03 0.02 0.01 0.01 0.01 0.01 0.01 0.01 0.01 0.01 0.01 0.01
0.09 0.11 0.13 0.13 0.12 0.11 0.10 0.09 0.09 0.09 0.08 0.07 0.05 0.04 0.04 0.04 0.04 0.03 0.03 0.03 0.03 0.02 0.02 0.02 0.01 0.01 0.01 0.01 0.01 0.01 0.00 0.00 0.01 0.00 0.00 0.00 0.00 0.00
0.09 0.09 0.10 0.11 0.10 0.10 0.09 0.08 0.09 0.08 0.07 0.06 0.05 0.04 0.03 0.03 0.03 0.03 0.03 0.02 0.02 0.02 0.01 0.01 0.01 0.01 0.01 0.01 0.01 0.00 0.01 0.01 0.01 0.02 0.01 0.01 0.01 0.00
0.08 0.08 0.08 0.09 0.08 0.07 0.06 0.06 0.06 0.05 0.05 0.04 0.04 0.04 0.04 0.04 0.04 0.03 0.02 0.02 0.01 0.01 0.01 0.00 0.01 0.01 0.01 0.01 0.01 0.01 0.01 0.01 0.01 0.01 0.01 0.01 0.00 0.00
0.07 0.08 0.09 0.09 0.09 0.08 0.08 0.07 0.06 0.05 0.04 0.04 0.04 0.05 0.05 0.04 0.03 0.02 0.01 0.01 0.01 0.00 0.00 0.00 0.00 0.00 0.00 0.00 0.01 0.01 0.00 0.00 0.00 0.00 0.00 0.00 0.00 0.00
0.06 0.07 0.06 0.06 0.05 0.05 0.06 0.06 0.05 0.04 0.04 0.04 0.05 0.05 0.05 0.04 0.03 0.02 0.02 0.02 0.01 0.01 0.01 0.01 0.00 0.00 0.00 0.00 0.00 0.00 0.00 0.00 0.00 0.00 0.00 0.00 0.00 0.00
0.08 0.07 0.06 0.05 0.04 0.04 0.04 0.04 0.04 0.04 0.04 0.03 0.03 0.03 0.03 0.02 0.02 0.02 0.02 0.02 0.02 0.02 0.02 0.02 0.01 0.01 0.01 0.01 0.00 0.00 0.00 0.00 0.00 0.00 0.00 0.00 0.00 0.00
0.08 0.07 0.06 0.06 0.05 0.05 0.04 0.04 0.03 0.02 0.02 0.02 0.02 0.01 0.01 0.01 0.01 0.02 0.02 0.02 0.02 0.02 0.02 0.02 0.01 0.01 0.01 0.01 0.00 0.00 0.00 0.00 0.00 0.00 0.00 0.00 0.00 0.00
0.06 0.06 0.05 0.04 0.03 0.03 0.02 0.02 0.02 0.01 0.01 0.01 0.01 0.01 0.01 0.01 0.01 0.01 0.01 0.01 0.01 0.01 0.01 0.00 0.00 0.00 0.00 0.00 0.00 0.00 0.00 0.00 0.00 0.00 0.00 0.00 0.00 0.00
0.04 0.03 0.03 0.02 0.01 0.01 0.01 0.01 0.01 0.01 0.01 0.01 0.01 0.02 0.02 0.02 0.01 0.01 0.01 0.01 0.01 0.00 0.00 0.00 0.00 0.00 0.00 0.00 0.00 0.00 0.00 0.00 0.00 0.00 0.00 0.00 0.01 0.00
0.01 0.01 0.01 0.01 0.01 0.01 0.01 0.01 0.01 0.01 0.01 0.01 0.01 0.01 0.01 0.01 0.01 0.01 0.01 0.01 0.00 0.00 0.00 0.00 0.00 0.00 0.00 0.00 0.00 0.00 0.00 0.00 0.00 0.00 0.00 0.00 0.00 0.00
0.01 0.00 0.00 0.01 0.01 0.01 0.01 0.01 0.01 0.01 0.01 0.01 0.01 0.01 0.01 0.01 0.01 0.01 0.01 0.01 0.00 0.00 0.00 0.00 0.00 0.00 0.00 0.00 0.00 0.00 0.00 0.00 0.00 0.00 0.01 0.01 0.01 0.01
0.00 0.00 0.00 0.01 0.01 0.01 0.01 0.01 0.01 0.01 0.00 0.00 0.01 0.01 0.01 0.01 0.01 0.01 0.01 0.00 0.00 0.00 0.00 0.00 0.00 0.00 0.00 0.00 0.00 0.00 0.00 0.00 0.00 0.01 0.01 0.00 0.00 0.01
MSLP
1019.33 1019.61 1019.90 1020.19 1020.44 1020.63 1020.75 1020.78 1020.73 1020.61 1020.44 1020.22 1019.97 1019.72 1019.46 1019.23 1019.03 1018.89 1018.82 1018.83 1018.93 1019.12 1019.37 1019.66 1019.96 1020.23 1020.46 1020.62 1020.71 1020.74 1020.74 1020.71 1020.69 1020.67 1020.68 1020.69 1020.69 1020.67
1019.24 1019.47 1019.71 1019.95 1020.15 1020.30 1020.40 1020.45 1020.44 1020.38 1020.29 1020.16 1020.01 1019.83 1019.64 1019.45 1019.27 1019.12 1019.03 1019.00 1019.05 1019.18 1019.39 1019.64 1019.92 1020.18 1020.41 1020.58 1020.69 1020.75 1020.77 1020.76 1020.75 1020.75 1020.76 1020.78 1020.79 1020.77
1019.29 1019.49 1019.68 1019.86 1020.02 1020.13 1020.22 1020.27 1020.30 1020.30 1020.30 1020.27 1020.22 1020.15 1020.05 1019.92 1019.78 1019.65 1019.53 1019.47 1019.47 1019.54 1019.68 1019.87 1020.10 1020.33 1020.53 1020.70 1020.81 1020.88 1020.91 1020.91 1020.91 1020.91 1020.92 1020.94 1020.94 1020.92
1019.51 1019.69 1019.85 1019.98 1020.09 1020.18 1020.24 1020.30 1020.35 1020.41 1020.48 1020.56 1020.61 1020.65 1020.64 1020.60 1020.51 1020.40 1020.28 1020.19 1020.13 1020.13 1020.20 1020.32 1020.48 1020.66 1020.83 1020.96 1021.06 1021.12 1021.14 1021.13 1021.12 1021.11 1021.11 1021.10 1021.08 1021.04
1019.90 1020.06 1020.20 1020.31 1020.39 1020.45 1020.50 1020.55 1020.62 1020.72 1020.85 1021.00 1021.15 1021.27 1021.36 1021.39 1021.36 1021.29 1021.18 1021.06 1020.96 1020.91 1020.90 1020.95 1021.03 1021.15 1021.26 1021.35 1021.41 1021.43 1021.43 1021.40 1021.36 1021.31 1021.27 1021.22 1021.17 1021.08
1020.42 1020.59 1020.73 1020.83 1020.89 1020.92 1020.95 1021.00 1021.07 1021.19 1021.35 1021.54 1021.75 1021.95 1022.11 1022.20 1022.23 1022.19 1022.10 1021.98 1021.85 1021.75 1021.68 1021.66 1021.68 1021.72 1021.77 1021.81 1021.82 1021.80 1021.75 1021.67 1021.58 1021.48 1021.37 1021.27 1021.15 1021.01
1021.03 1021.22 1021.37 1021.47 1021.52 1021.54 1021.56 1021.58 1021.64 1021.75 1021.91 1022.12 1022.36 1022.59 1022.79 1022.93 1023.00 1023.00 1022.93 1022.81 1022.68 1022.55 1022.45 1022.38 1022.34 1022.33 1022.32 1022.30 1022.25 1022.18 1022.06 1021.92 1021.76 1021.59 1021.41 1021.23 1021.04 1020.83
1021.69 1021.89 1022.06 1022.16 1022.22 1022.23 1022.23 1022.23 1022.26 1022.34 1022.48 1022.67 1022.90 1023.13 1023.35 1023.51 1023.61 1023.63 1023.58 1023.49 1023.36 1023.23 1023.11 1023.01 1022.95 1022.89 1022.84 1022.77 1022.67 1022.53 1022.35 1022.14 1021.90 1021.65 1021.39 1021.13 1020.86 1020.59
1022.34 1022.56 1022.74 1022.86 1022.93 1022.93 1022.91 1022.88 1022.87 1022.90 1023.00 1023.14 1023.33 1023.54 1023.74 1023.91 1024.01 1024.05 1024.03 1023.95 1023.85 1023.73 1023.62 1023.53 1023.45 1023.38 1023.30 1023.19 1023.05 1022.86 1022.62 1022.33 1022.02 1021.68 1021.34 1021.00 1020.66 1020.32
1022.97 1023.20 1023.39 1023.52 1023.58 1023.59 1023.55 1023.49 1023.43 1023.42 1023.45 1023.54 1023.67 1023.83 1023.99 1024.14 1024.23 1024.28 1024.28 1024.23 1024.15 1024.07 1023.98 1023.91 1023.84 1023.77 1023.68 1023.56 1023.38 1023.15 1022.85 1022.51 1022.12 1021.71 1021.30 1020.89 1020.49 1020.11
1023.55 1023.78 1023.97 1024.11 1024.18 1024.18 1024.12 1024.04 1023.94 1023.88 1023.85 1023.87 1023.94 1024.05 1024.16 1024.27 1024.35 1024.39 1024.40 1024.37 1024.32 1024.27 1024.22 1024.17 1024.13 1024.08 1023.99 1023.86 1023.67 1023.41 1023.07 1022.68 1022.24 1021.77 1021.30 1020.84 1020.40 1019.99
1024.08 1024.31 1024.50 1024.64 1024.71 1024.70 1024.64 1024.53 1024.41 1024.30 1024.23 1024.19 1024.20 1024.25 1024.31 1024.38 1024.43 1024.46 1024.47 1024.45 1024.43 1024.41 1024.39 1024.37 1024.36 1024.32 1024.25 1024.12 1023.92 1023.64 1023.28 1022.85 1022.37 1021.86 1021.35 1020.86 1020.40 1019.97
1024.58 1024.80 1024.98 1025.12 1025.18 1025.17 1025.10 1024.99 1024.85 1024.72 1024.61 1024.54 1024.50 1024.50 1024.52 1024.55 1024.57 1024.58 1024.57 1024.56 1024.55 1024.54 1024.54 1024.55 1024.55 1024.53 1024.47 1024.34 1024.13 1023.83 1023.46 1023.00 1022.50 1021.98 1021.45 1020.94 1020.48 1020.05
1025.05 1025.25 1025.43 1025.55 1025.61 1025.60 1025.54 1025.42 1025.29 1025.15 1025.03 1024.94 1024.88 1024.84 1024.83 1024.82 1024.81 1024.79 1024.77 1024.75 1024.72 1024.72 1024.72 1024.73 1024.73 1024.71 1024.64 1024.51 1024.29 1023.99 1023.59 1023.13 1022.62 1022.08 1021.55 1021.05 1020.59 1020.18
1025.49 1025.68 1025.84 1025.96 1026.02 1026.01 1025.95 1025.85 1025.73 1025.60 1025.49 1025.40 1025.34 1025.29 1025.25 1025.22 1025.18 1025.13 1025.08 1025.03 1024.98 1024.95 1024.93 1024.92 1024.90 1024.86 1024.78 1024.63 1024.39 1024.07 1023.67 1023.20 1022.68 1022.15 1021.63 1021.14 1020.70 1020.30
1025.91 1026.09 1026.24 1026.35 1026.40 1026.40 1026.35 1026.28 1026.18 1026.08 1026.00 1025.92 1025.87 1025.83 1025.78 1025.73 1025.66 1025.58 1025.49 1025.39 1025.31 1025.23 1025.17 1025.11 1025.06 1024.98 1024.86 1024.68 1024.42 1024.08 1023.67 1023.19 1022.68 1022.15 1021.65 1021.18 1020.76 1020.38
1026.32 1026.48 1026.62 1026.72 1026.78 1026.79 1026.76 1026.71 1026.64 1026.58 1026.53 1026.49 1026.46 1026.42 1026.37 1026.31 1026.21 1026.10 1025.96 1025.81 1025.67 1025.53 1025.41 1025.30 1025.19 1025.06 1024.89 1024.67 1024.38 1024.02 1023.59 1023.11 1022.59 1022.08 1021.59 1021.14 1020.74 1020.38
1026.70 1026.87 1027.00 1027.10 1027.16 1027.18 1027.17 1027.15 1027.12 1027.10 1027.08 1027.07 1027.06 1027.03 1026.98 1026.90 1026.78 1026.63 1026.44 1026.24 1026.03 1025.83 1025.64 1025.47 1025.29 1025.10 1024.88 1024.61 1024.29 1023.90 1023.45 1022.96 1022.45 1021.94 1021.46 1021.03 1020.65 1020.31
1027.08 1027.25 1027.39 1027.49 1027.55 1027.59 1027.60 1027.60 1027.61 1027.62 1027.63 1027.64 1027.64 1027.62 1027.56 1027.46 1027.31 1027.11 1026.88 1026.62 1026.36 1026.10 1025.84 1025.60 1025.36 1025.11 1024.84 1024.53 1024.17 1023.76 1023.29 1022.80 1022.29 1021.78 1021.31 1020.89 1020.51 1020.18
1027.45 1027.63 1027.78 1027.89 1027.96 1028.01 1028.05 1028.07 1028.10 1028.12 1028.15 1028.17 1028.18 1028.14 1028.07 1027.94 1027.75 1027.52 1027.24 1026.94 1026.62 1026.30 1026.00 1025.70 1025.41 1025.12 1024.81 1024.46 1024.08 1023.64 1023.17 1022.67 1022.15 1021.65 1021.18 1020.76 1020.39 1020.06
1027.82 1028.01 1028.17 1028.29 1028.39 1028.45 1028.50 1028.54 1028.57 1028.61 1028.63 1028.65 1028.63 1028.58 1028.47 1028.31 1028.09 1027.81 1027.50 1027.16 1026.81 1026.46 1026.11 1025.79 1025.47 1025.14 1024.80 1024.44 1024.04 1023.60 1023.12 1022.61 1022.10 1021.60 1021.12 1020.70 1020.32 1019.98
1028.17 1028.37 1028.55 1028.69 1028.80 1028.88 1028.94 1028.99 1029.02 1029.04 1029.05 1029.04 1028.99 1028.90 1028.75 1028.55 1028.30 1027.99 1027.65 1027.29 1026.92 1026.55 1026.20 1025.86 1025.53 1025.20 1024.85 1024.49 1024.08 1023.64 1023.17 1022.66 1022.15 1021.65 1021.17 1020.73 1020.33 1019.98
1028.46 1028.69 1028.88 1029.04 1029.17 1029.26 1029.33 1029.38 1029.40 1029.40 1029.38 1029.33 1029.24 1029.10 1028.91 1028.67 1028.38 1028.06 1027.70 1027.34 1026.96 1026.60 1026.26 1025.93 1025.61 1025.29 1024.96 1024.60 1024.21 1023.78 1023.32 1022.82 1022.32 1021.81 1021.33 1020.87 1020.46 1020.08
Thickness
5730 5729 5728 5728 5727 5727 5725 5722 5715 5708 5709 5717 5721 5725 5725 5724 5723 5721 5719 5717 5715 5713 5711 5708 5706 5704 5702 5700 5698 5696 5694 5692 5690 5689 5687 5686 5684 5683
5728 5726 5725 5725 5724 5724 5723 5722 5719 5714 5708 5714 5718 5722 5723 5722 5720 5718 5716 5714 5712 5710 5708 5705 5703 5702 5700 5697 5695 5693 5691 5689 5687 5685 5683 5682 5680 5679
5725 5723 5722 5722 5720 5720 5720 5718 5717 5714 5709 5710 5714 5717 5717 5716 5715 5713 5712 5709 5708 5706 5704 5702 5700 5698 5696 5694 5691 5689 5686 5684 5682 5680 5679 5677 5675 5674
5721 5719 5718 5718 5716 5716 5715 5713 5712 5711 5708 5704 5705 5708 5709 5709 5709 5707 5706 5704 5702 5701 5699 5697 5696 5694 5691 5689 5686 5684 5681 5679 5677 5675 5672 5670 5669 5667
5717 5715 5713 5712 5710 5710 5709 5708 5707 5707 5704 5700 5699 5700 5700 5701 5699 5698 5698 5696 5695 5694 5692 5691 5689 5687 5685 5682 5679 5677 5675 5672 5670 5668 5666 5664 5661 5660
5713 5711 5710 5708 5706 5705 5703 5702 5701 5699 5697 5695 5692 5691 5691 5691 5689 5687 5685 5685 5685 5684 5683 5682 5680 5678 5676 5674 5671 5670 5667 5665 5662 5660 5658 5655 5653 5651
5707 5706 5705 5704 5702 5700 5698 5695 5694 5691 5689 5686 5684 5682 5680 5679 5677 5677 5675 5674 5673 5672 5671 5670 5669 5667 5665 5663 5661 5660 5658 5656 5653 5651 5648 5646 5643 5641
5699 5699 5698 5697 5695 5693 5692 5690 5688 5685 5681 5678 5675 5672 5670 5669 5668 5667 5665 5662 5659 5660 5658 5657 5656 5653 5652 5651 5649 5648 5646 5644 5642 5640 5637 5635 5632 5630
5692 5691 5690 5689 5687 5685 5683 5681 5679 5678 5676 5672 5668 5664 5662 5660 5658 5656 5654 5651 5648 5647 5646 5643 5642 5640 5639 5638 5637 5635 5633 5631 5629 5627 5625 5622 5620 5618
5685 5683 5681 5679 5678 5677 5674 5671 5669 5667 5666 5663 5660 5657 5654 5652 5649 5647 5644 5640 5637 5636 5635 5630 5628 5626 5625 5624 5623 5621 5619 5617 5615 5613 5611 5609 5607 5605
5676 5675 5673 5671 5670 5668 5665 5661 5657 5655 5653 5651 5648 5646 5643 5641 5639 5636 5632 5628 5623 5621 5620 5617 5614 5612 5610 5609 5608 5607 5605 5603 5601 5599 5597 5595 5593 5590
5664 5663 5662 5660 5659 5657 5654 5651 5646 5643 5640 5638 5635 5633 5631 5629 5627 5624 5620 5616 5611 5607 5606 5603 5600 5597 5594 5593 5592 5591 5589 5588 5586 5584 5582 5579 5577 5575
5653 5650 5648 5648 5647 5645 5642 5639 5635 5632 5628 5625 5621 5618 5617 5614 5612 5609 5607 5604 5598 5593 5591 5589 5585 5582 5578 5575 5575 5575 5573 5571 5569 5568 5566 5563 5561 5559
5642 5639 5636 5635 5634 5632 5628 5625 5622 5619 5615 5611 5607 5603 5600 5598 5596 5593 5591 5588 5585 5581 5578 5575 5571 5567 5563 5559 5557 5557 5556 5555 5553 5550 5548 5546 5544 5542
5631 5628 5625 5622 5620 5617 5614 5612 5609 5604 5600 5596 5591 5587 5584 5582 5580 5578 5575 5572 5570 5566 5564 5561 5557 5553 5549 5544 5540 5538 5537 5536 5535 5533 5531 5529 5527 5525
5618 5614 5612 5609 5606 5603 5599 5596 5593 5589 5585 5580 5576 5573 5571 5568 5565 5562 5558 5555 5551 5547 5547 5545 5542 5538 5533 5529 5525 5522 5520 5519 5518 5517 5515 5512 5510 5508
5606 5602 5598 5594 5590 5586 5583 5580 5577 5574 5570 5566 5562 5558 5555 5552 5548 5545 5541 5537 5532 5528 5527 5526 5525 5523 5519 5515 5510 5508 5505 5503 5502 5500 5498 5496 5495 5493
5595 5589 5583 5578 5575 5571 5568 5564 5561 5557 5554 5550 5547 5543 5539 5536 5532 5529 5525 5520 5516 5513 5510 5508 5507 5505 5502 5500 5498 5494 5491 5488 5487 5486 5483 5480 5479 5479
5581 5574 5569 5565 5561 5557 5554 5550 5545 5542 5539 5535 5531 5527 5524 5520 5516 5512 5508 5505 5501 5498 5496 5494 5491 5487 5483 5480 5481 5482 5478 5475 5474 5472 5470 5468 5466 5466
5566 5561 5556 5552 5548 5544 5539 5535 5531 5527 5524 5520 5516 5512 5508 5504 5501 5497 5493 5490 5487 5484 5481 5480 5478 5474 5470 5467 5466 5467 5468 5465 5462 5460 5459 5457 5456 5456
5552 5548 5544 5540 5535 5530 5526 5521 5517 5513 5508 5504 5500 5497 5493 5490 5486 5483 5480 5478 5474 5471 5468 5466 5466 5465 5462 5459 5455 5455 5456 5457 5454 5451 5449 5447 5445 5443
5539 5535 5531 5527 5522 5517 5512 5508 5503 5498 5494 5490 5486 5483 5480 5478 5474 5471 5468 5465 5462 5459 5457 5456 5456 5455 5452 5448 5445 5444 5445 5447 5447 5445 5443 5440 5436 5433
5527 5522 5518 5513 5509 5504 5500 5495 5490 5485 5481 5478 5475 5472 5469 5466 5464 5461 5458 5455 5452 5449 5447 5445 5445 5443 5441 5439 5437 5436 5437 5436 5435 5434 5435 5434 5432 5429